When you browse on this site, cookies collect data to enhance your experience and personalize the content and advertising you see.
Visit our Privacy Policy to learn more. By continuing to use the site, you agree to this use of cookies and data.
  • In Portugal
  • List of Countries
  • For 7 days
  • Water Temperature
  • Satellite Maps
  • Weather Map
  • Weather Widgets
  • user-avatar
    Login

    Hourly Weather Kociolki

    Today, 16 January, Wednesday

    Time Temperature Precipitation Wind Pressure Humidity
    00:00 -6°C° 0.2 mm 3 mps 727 mmHg 92%
    01:00 -5°C° 0.2 mm 2 mps 726 mmHg 94%
    02:00 -5°C° 0 mm 2 mps 726 mmHg 96%
    03:00 -5°C° 0.1 mm 2 mps 727 mmHg 96%
    04:00 -6°C° 0.1 mm 2 mps 728 mmHg 96%
    05:00 -6°C° 0.1 mm 2 mps 728 mmHg 96%
    06:00 -6°C° 0 mm 2 mps 729 mmHg 96%
    07:00 -7°C° 0 mm 3 mps 730 mmHg 96%
    08:00 -7°C° 0 mm 3 mps 731 mmHg 95%
    09:00 -6°C° 0 mm 3 mps 731 mmHg 95%
    10:00 -6°C° 0 mm 3 mps 732 mmHg 95%
    11:00 -5°C° 0 mm 2 mps 732 mmHg 95%
    12:00 -5°C° 0 mm 3 mps 732 mmHg 93%
    13:00 -4°C° 0 mm 3 mps 733 mmHg 92%
    14:00 -2°C° 0 mm 3 mps 733 mmHg 91%
    15:00 -4°C° 0 mm 3 mps 733 mmHg 92%
    16:00 -4°C° 0 mm 3 mps 732 mmHg 93%
    17:00 -5°C° 0 mm 3 mps 732 mmHg 94%
    18:00 -4°C° 0.1 mm 4 mps 732 mmHg 95%
    19:00 -3°C° 0.1 mm 4 mps 732 mmHg 95%
    20:00 -2°C° 0.1 mm 5 mps 732 mmHg 95%
    21:00 -1°C° 0.1 mm 5 mps 731 mmHg 96%
    22:00 -1°C° 0.1 mm 5 mps 731 mmHg 96%
    23:00 -2°C° 0.1 mm 6 mps 731 mmHg 97%

    Tomorrow, 17 January, Thursday

    Time Temperature Precipitation Wind Pressure Humidity
    00:00 -2°C° 0.1 mm 6 mps 730 mmHg 97%
    01:00 -2°C° 0.1 mm 6 mps 730 mmHg 97%
    02:00 -2°C° 0.1 mm 6 mps 730 mmHg 97%
    03:00 -2°C° 0.2 mm 6 mps 729 mmHg 96%
    04:00 -2°C° 0.2 mm 7 mps 729 mmHg 96%
    05:00 -2°C° 0.2 mm 7 mps 728 mmHg 96%
    06:00 -2°C° 0.2 mm 7 mps 728 mmHg 94%
    07:00 -2°C° 0.2 mm 7 mps 727 mmHg 92%
    08:00 -2°C° 0.2 mm 8 mps 727 mmHg 91%
    09:00 -2°C° 0.1 mm 8 mps 727 mmHg 90%
    10:00 -2°C° 0.1 mm 8 mps 726 mmHg 90%
    11:00 -2°C° 0.1 mm 8 mps 726 mmHg 89%
    12:00 -2°C° 0.1 mm 8 mps 726 mmHg 89%
    13:00 -2°C° 0.1 mm 8 mps 726 mmHg 89%
    14:00 -2°C° 0.1 mm 8 mps 726 mmHg 90%
    15:00 -2°C° 0.1 mm 7 mps 726 mmHg 90%
    16:00 -2°C° 0.1 mm 7 mps 727 mmHg 90%
    17:00 -1°C° 0.1 mm 6 mps 727 mmHg 91%
    18:00 -2°C° 0 mm 6 mps 727 mmHg 90%
    19:00 -2°C° 0 mm 6 mps 727 mmHg 89%
    20:00 -2°C° 0 mm 6 mps 728 mmHg 89%
    21:00 -2°C° 0 mm 6 mps 728 mmHg 88%
    22:00 -2°C° 0 mm 6 mps 728 mmHg 87%
    23:00 -3°C° 0 mm 6 mps 728 mmHg 87%

    Day after tomorrow, 18 January, Friday

    Time Temperature Precipitation Wind Pressure Humidity
    00:00 -3°C° 0 mm 6 mps 728 mmHg 88%
    01:00 -3°C° 0 mm 6 mps 728 mmHg 89%
    02:00 -3°C° 0 mm 6 mps 728 mmHg 90%
    03:00 -2°C° 0.1 mm 5 mps 728 mmHg 91%
    04:00 -2°C° 0.1 mm 4 mps 728 mmHg 93%
    05:00 -2°C° 0.1 mm 4 mps 728 mmHg 94%
    06:00 -2°C° 0.3 mm 4 mps 728 mmHg 93%
    07:00 -2°C° 0.3 mm 5 mps 728 mmHg 93%
    08:00 -2°C° 0.3 mm 5 mps 729 mmHg 92%
    09:00 -4°C° 0.9 mm 5 mps 729 mmHg 93%
    10:00 -5°C° 0.9 mm 5 mps 730 mmHg 94%
    11:00 -6°C° 0.9 mm 6 mps 731 mmHg 94%
    12:00 -6°C° 0.2 mm 6 mps 732 mmHg 90%
    13:00 -6°C° 0.2 mm 5 mps 733 mmHg 86%
    14:00 -6°C° 0.2 mm 5 mps 734 mmHg 82%
    15:00 -7°C° 0 mm 4 mps 735 mmHg 84%
    16:00 -7°C° 0 mm 4 mps 736 mmHg 86%
    17:00 -6°C° 0 mm 3 mps 737 mmHg 88%
    18:00 -7°C° 0 mm 4 mps 738 mmHg 89%
    19:00 -7°C° 0 mm 4 mps 738 mmHg 89%
    20:00 -7°C° 0 mm 5 mps 739 mmHg 89%
    21:00 -7°C° 0 mm 5 mps 739 mmHg 87%
    22:00 -7°C° 0 mm 5 mps 740 mmHg 86%
    23:00 -8°C° 0 mm 5 mps 740 mmHg 84%

    19 January, Saturday

    Time Temperature Precipitation Wind Pressure Humidity
    00:00 -8°C° 0 mm 5 mps 741 mmHg 85%
    01:00 -8°C° 0 mm 5 mps 741 mmHg 85%
    02:00 -8°C° 0 mm 4 mps 741 mmHg 85%
    03:00 -8°C° 0 mm 4 mps 742 mmHg 86%
    04:00 -8°C° 0 mm 4 mps 742 mmHg 88%
    05:00 -8°C° 0 mm 4 mps 742 mmHg 90%
    06:00 -8°C° 0 mm 4 mps 742 mmHg 91%
    07:00 -8°C° 0 mm 4 mps 742 mmHg 93%
    08:00 -8°C° 0 mm 4 mps 742 mmHg 94%
    09:00 -8°C° 0 mm 4 mps 742 mmHg 93%
    10:00 -7°C° 0 mm 5 mps 742 mmHg 92%
    11:00 -7°C° 0 mm 5 mps 743 mmHg 91%
    12:00 -6°C° 0 mm 5 mps 743 mmHg 90%
    13:00 -5°C° 0 mm 5 mps 743 mmHg 89%
    14:00 -5°C° 0 mm 5 mps 743 mmHg 88%
    15:00 -5°C° 0 mm 5 mps 743 mmHg 88%
    16:00 -5°C° 0 mm 5 mps 743 mmHg 89%
    17:00 -5°C° 0 mm 5 mps 743 mmHg 89%
    18:00 -4°C° 0.1 mm 4 mps 743 mmHg 90%
    19:00 -4°C° 0.1 mm 4 mps 743 mmHg 92%
    20:00 -4°C° 0.1 mm 3 mps 743 mmHg 93%
    21:00 -5°C° 0 mm 3 mps 744 mmHg 94%
    22:00 -5°C° 0 mm 3 mps 744 mmHg 94%
    23:00 -5°C° 0 mm 3 mps 744 mmHg 95%

    20 January, Sunday

    Time Temperature Precipitation Wind Pressure Humidity
    00:00 -4°C° 0 mm 2 mps 744 mmHg 95%
    01:00 -5°C° 0 mm 2 mps 744 mmHg 95%
    02:00 -5°C° 0 mm 2 mps 744 mmHg 95%
    03:00 -5°C° 0 mm 2 mps 743 mmHg 95%
    04:00 -5°C° 0 mm 2 mps 743 mmHg 95%
    05:00 -5°C° 0 mm 2 mps 743 mmHg 95%
    06:00 -5°C° 0 mm 2 mps 743 mmHg 95%
    07:00 -7°C° 0 mm 3 mps 743 mmHg 94%
    08:00 -7°C° 0 mm 3 mps 743 mmHg 94%
    09:00 -7°C° 0 mm 3 mps 743 mmHg 93%
    10:00 -6°C° 0 mm 3 mps 743 mmHg 92%
    11:00 -6°C° 0 mm 3 mps 743 mmHg 92%
    12:00 -6°C° 0 mm 3 mps 742 mmHg 92%
    13:00 -5°C° 0 mm 3 mps 742 mmHg 92%
    14:00 -4°C° 0 mm 3 mps 742 mmHg 92%
    15:00 -5°C° 0 mm 3 mps 741 mmHg 92%
    16:00 -5°C° 0 mm 3 mps 741 mmHg 93%
    17:00 -6°C° 0 mm 3 mps 741 mmHg 94%
    18:00 -5°C° 0.1 mm 3 mps 741 mmHg 94%
    19:00 -5°C° 0.1 mm 4 mps 741 mmHg 94%
    20:00 -5°C° 0.1 mm 4 mps 741 mmHg 94%
    21:00 -6°C° 0.4 mm 5 mps 740 mmHg 94%
    22:00 -6°C° 0.4 mm 5 mps 740 mmHg 94%
    23:00 -6°C° 0.4 mm 5 mps 740 mmHg 94%

    21 January, Monday

    Time Temperature Precipitation Wind Pressure Humidity
    00:00 -6°C° 0.3 mm 5 mps 740 mmHg 93%
    01:00 -7°C° 0.3 mm 4 mps 740 mmHg 92%
    02:00 -8°C° 0.3 mm 4 mps 740 mmHg 90%
    03:00 -8°C° 0 mm 4 mps 740 mmHg 90%
    04:00 -8°C° 0 mm 5 mps 740 mmHg 90%
    05:00 -10°C° 0 mm 5 mps 741 mmHg 90%
    06:00 -10°C° 0 mm 5 mps 741 mmHg 89%
    07:00 -10°C° 0 mm 6 mps 742 mmHg 89%
    08:00 -10°C° 0 mm 6 mps 743 mmHg 89%
    09:00 -10°C° 0 mm 5 mps 743 mmHg 89%
    10:00 -10°C° 0 mm 5 mps 744 mmHg 89%
    11:00 -10°C° 0 mm 5 mps 745 mmHg 89%
    12:00 -9°C° 0 mm 4 mps 745 mmHg 87%
    13:00 -8°C° 0 mm 4 mps 746 mmHg 86%
    14:00 -8°C° 0 mm 4 mps 746 mmHg 85%
    15:00 -8°C° 0 mm 3 mps 746 mmHg 86%
    16:00 -8°C° 0 mm 3 mps 747 mmHg 88%
    17:00 -9°C° 0 mm 3 mps 747 mmHg 90%
    18:00 -9°C° 0 mm 3 mps 747 mmHg 90%
    19:00 -9°C° 0 mm 3 mps 747 mmHg 90%
    20:00 -9°C° 0 mm 3 mps 747 mmHg 90%
    21:00 -9°C° 0 mm 3 mps 747 mmHg 90%
    22:00 -9°C° 0 mm 3 mps 747 mmHg 89%
    23:00 -9°C° 0 mm 3 mps 747 mmHg 89%
    Show more